Location: Beacon Field Observatory
(38.7700°N, 77.0829°W)
Time: 16:09:23
(UTC-04:00)

OTV 5 (USA 277) - Visible Passes

Search period start: 14 October 2019 00:00
Search period end: 24 October 2019 00:00
Orbit: 310 x 324 km, 54.5° (Epoch: 08 October)

Date Brightness Start Highest point End Pass type
(mag) Time Alt. Az. Time Alt. Az. Time Alt. Az.
16 Oct ? 06:12:54 10° NNE 06:13:26 10° NNE 06:13:59 10° NE visible
17 Oct ? 06:26:07 10° NNW 06:28:17 20° NE 06:30:25 10° E visible
18 Oct ? 06:40:16 10° NW 06:42:57 52° NE 06:45:37 10° ESE visible
19 Oct ? 05:23:15 14° NE 05:23:15 14° NE 05:24:35 10° ENE visible
20 Oct ? 05:37:54 30° NE 05:37:54 30° NE 05:40:14 10° ESE visible
21 Oct ? 05:52:41 65° SE 05:52:41 65° SE 05:55:04 10° SE visible
22 Oct ? 06:07:36 21° SSW 06:07:36 21° SSW 06:09:06 10° S visible
